Regional Weather Roundup
Issued by NWS

Home | Current Version | Previous Version | Text Only | Print | Product List | Glossary On
Versions: 1 2 3 4 5 6 7 8 9 10 11 12 13 14 15 16 17 18 19 20 21 22 23 24 25 26 27 28 29 30 31 32 33 34 35 36 37 38 39 40 41 42 43 44 45 46 47 48 49 50
000
ASUS42 KTBW 180517
RWRFL
FLORIDA REGIONAL WEATHER ROUNDUP
NATIONAL WEATHER SERVICE TAMPA BAY RUSKIN FL
100 AM EDT SAT APR 18 2015

NOTE: "FAIR" INDICATES FEW OR NO CLOUDS BELOW 12,000 FEET WITH NO
SIGNIFICANT WEATHER AND/OR OBSTRUCTIONS TO VISIBILITY.


FLZ001>010-012>015-112-114-115-180600-
PANHANDLE FLORIDA

CITY           SKY/WX    TMP DP  RH WIND       PRES   REMARKS
PENSACOLA      MOCLDY    71  69  93 CALM      29.94F
PENSACOLA NAS  MOCLDY    70  68  93 CALM      29.94F FOG
MILTON NAS     MOCLDY    68  66  93 CALM      29.95
CRESTVIEW      MOCLDY    67  67 100 CALM      29.97S
DUKE FIELD     FAIR      70  68  94 MISG      29.94F
VALPARAISO     MOCLDY    72  70  93 VRB2      29.94F
MARY ESTHER    MOCLDY    71  65  81 CALM      29.93F
TRI COUNTY     FOG       66  65  96 CALM      29.97F VSB 1/2
PANAMA CITY    FAIR      72  71  97 CALM      29.95F FOG
TYNDALL AFB    MOCLDY    72  71  94 CALM      29.96F
APALACHICOLA   CLOUDY    78  73  84 S8        29.97F

STATION/POSITION SKY/WX   TEMP    WIND        PRES    WAVE   SWELL
                          AIR SEA DIR/SP/G            HT/PER HT/PER
                          (F)     (DEG/KT/KT) (MB)    (FT/S) (FT/S)
30.1N   87.6W              73 73  100/  2/  2 1013.2F   3/ 5   2/ 5
29.2N   88.2W              74 73  170/  4/  4 1014.1F   3/ 5   3/ 5
28.8N   86.0W              76 77  170/  6/  8 1015.1F   3/ 5   3/ 5
PANAMA CITY BEAC           74 75  220/  3/  3 1014.6F
CAPE SAN BLAS    NOT AVBL
TOWER C                    74     180/ 15/ 15 1014.4F
28.5N   84.5W              76 76  180/  8/ 10 1015.4F   2/ 4   2/ 4

$$
FLZ011-016>038-118-127-128-134-139-239-180600-
NORTH FLORIDA

CITY           SKY/WX    TMP DP  RH WIND       PRES   REMARKS
MARIANNA       PTCLDY    68  68 100 CALM      29.96S
TALLAHASSEE    MOCLDY    73  71  93 S3        29.97F
PERRY          PTCLDY    70  69  96 CALM      29.99R
CROSS CITY       N/A    N/A N/A N/A MISG      29.99S
LAKE CITY      FAIR      68  68 100 SE5       30.00S
GAINESVILLE    CLOUDY    69  68  96 SE6       30.01F FOG
MAYPORT NAS    CLOUDY    66  66 100 S3        30.00F
JACKSONVILLE   CLOUDY    66  64  93 NW3       30.01R
JAX NAS        CLOUDY    73  67  81 S8        30.00F
JAX CRAIG      CLOUDY    68  64  87 S3        29.99F
JAX CECIL      CLOUDY    66  66 100 S3        30.01S FOG
FERNANDINA BEA FAIR      72  68  88 CALM      30.00R
ST AUGUSTINE   PTCLDY    67  66  97 S6        30.01F

STATION/POSITION SKY/WX   TEMP    WIND        PRES    WAVE   SWELL
                          AIR SEA DIR/SP/G            HT/PER HT/PER
                          (F)     (DEG/KT/KT) (MB)    (FT/S) (FT/S)
SHELL POINT                75     160/ 14/ 16   N/A
KEATON BEACH               72     130/  6/  7 1015.1F
CEDAR KEY                  76     200/  6/  6 1016.1F
FERNANDINA                 68 70  150/  2/  3 1015.2F
30.7N   81.3W                 70                N/A     2/11   2/11
MAYPORT                    68 70  160/  4/  4 1016.0F
31.4N   80.9W              66 67  220/  4/  4 1016.4R   3/10   3/10
ST AUGUSTINE               67 69  220/  6/  6 1016.7F

$$
FLZ040-043>046-052-053-057-058-063-144-180600-
INTERIOR CENTRAL FLORIDA

CITY           SKY/WX    TMP DP  RH WIND       PRES   REMARKS
OCALA          MOCLDY    70  66  88 CALM      30.02S
THE VILLAGES     N/A     72  72 100 CALM      29.92F
LEESBURG       CLOUDY    72  69  90 CALM      30.02F
SANFORD        CLOUDY    71  69  93 CALM      30.01F
ORLANDO EXEC   CLOUDY    72  70  93 SE3       30.01F
ORLANDO INTL   CLOUDY    73  71  93 CALM      30.02S
WINTER HAVEN   PTCLDY    73  70  90 NE5       30.03S
LAKELAND       MOCLDY    72  68  88 CALM      30.02S
BARTOW         FAIR      70  70 100 CALM      30.03S
OKEECHOBEE     CLOUDY    72  70  94 N3        30.00F

$$
FLZ041-047-054-059-064-141-147-180600-
EAST CENTRAL FLORIDA

CITY           SKY/WX    TMP DP  RH WIND       PRES   REMARKS
DAYTONA BEACH  MOCLDY    69  68  96 CALM      30.02S
DELAND           N/A    N/A N/A N/A CALM      30.02F
JFK SPACE CTR  CLOUDY    70  69  95 CALM      30.00S
CAPE CANAVERAL CLOUDY    74  72  93 E3        29.99F
PATRICK AFB    MOCLDY    75  73  93 N9        30.00S
MELBOURNE      MOCLDY    75  73  93 N6        30.00S
VERO BEACH     CLOUDY    76  70  82 S6        29.99F
FT PIERCE      MOCLDY    72  70  93 CALM      29.99F
STUART         PTCLDY    73  68  83 S6        30.00F

STATION/POSITION SKY/WX   TEMP    WIND        PRES    WAVE   SWELL
                          AIR SEA DIR/SP/G            HT/PER HT/PER
                          (F)     (DEG/KT/KT) (MB)    (FT/S) (FT/S)
28.5N   80.2W              77 79   60/  8/ 10 1016.3F
28.9N   78.5W              77 78  180/ 10/ 12 1016.4F
TRIDENT PIER               74 79   30/  5/  6 1016.4F
28.4N   80.5W                 78                N/A     2/ 9
27.5N   80.2W                 78                N/A     4/10   2/11

$$
FLZ050-056-061-142-242-148-248-149-249-151-251-155-255-
160-260-180600-
WEST CENTRAL FLORIDA

CITY           SKY/WX    TMP DP  RH WIND       PRES   REMARKS
CRYSTAL RIVER  MOCLDY    70  68  94 CALM      30.01F
INVERNESS      FAIR      72  18  13 CALM      30.02F HAZE
BROOKSVILLE    CLOUDY    73  71  93 CALM      30.02F
CLEARWATER     PTCLDY    74  71  91 CALM      30.01S
TAMPA INTL     PTCLDY    77  70  79 NE3       30.02S
TAMPA EXEC     PTCLDY    73  72  94 CALM      30.02S
PLANT CITY     PTCLDY    75  73  94 CALM      30.04S
MACDILL AFB    PTCLDY    75  74  94 NW2       30.01F
PETER O KNIGHT MOCLDY    79  72  78 N3        30.01F
ST PETERSBURG  PTCLDY    78  73  84 N3        30.00R
SARASOTA       MOCLDY    76  73  91 CALM      30.00R
VENICE         FAIR      77  75  94 CALM      30.01S

STATION/POSITION SKY/WX   TEMP    WIND        PRES    WAVE   SWELL
                          AIR SEA DIR/SP/G            HT/PER HT/PER
                          (F)     (DEG/KT/KT) (MB)    (FT/S) (FT/S)
CEDAR KEY                  76     200/  6/  6 1016.1F
28.5N   84.5W              76 76  180/  8/ 10 1015.4F   2/ 4   2/ 4
27.3N   84.2W                 78                N/A     2/ 8
CLEARWATER BEACH           78 81  230/  4/  6 1016.5
MIDDLE TAMPA BAY           78     230/  6/  7 1016.3F
VENICE                     78 83  210/  5/  6 1015.5F

$$
FLZ066-069-070-075>078-162-262-165-265-180600-
SOUTHWEST FLORIDA AND KEYS

CITY           SKY/WX    TMP DP  RH WIND       PRES   REMARKS
PUNTA GORDA    CLEAR     69  69 100 SE3       30.02S FOG
FT MYERS       MOCLDY    76  73  91 CALM      30.00S
SOUTHWEST INTL MOCLDY    73  71  93 CALM      30.01S
NAPLES         CLOUDY    77  72  84 CALM      30.00S
MARCO ISLAND   CLOUDY    75  70  83 CALM      30.01R
IMMOKALEE      CLEAR    N/A N/A N/A CALM      30.02S
MARATHON       MOCLDY    79  74  84 SE3       30.01S
KEY WEST NAS   PTCLDY    78  73  84 SE9       30.01S
KEY WEST INTL  PTCLDY    79  74  84 SE12      30.01S

STATION/POSITION SKY/WX   TEMP    WIND        PRES    WAVE   SWELL
                          AIR SEA DIR/SP/G            HT/PER HT/PER
                          (F)     (DEG/KT/KT) (MB)    (FT/S) (FT/S)
VENICE                     78 83  210/  5/  6 1015.5F
NAPLES                     80 83  180/  2/  5 1016.0S
26.0N   85.6W              79 80  170/  4/  4 1015.0F   2/ 6   2/ 6
DRY TORTUGAS               79     130/  6/  6 1015.7F
NW FL BAY                  81     150/  6/  7 1016.4
SAND KEY                   79     140/ 12/ 13 1016.2R
SOMBRERO KEY               79     130/ 11/ 12 1017.0S
LONG KEY                   79 84  140/  9/ 10 1017.0S
MOLASSES REEF              79 79  110/  5/  6 1016.4F

$$
FLZ067-068-071>074-168-172>174-180600-
SOUTHEAST FLORIDA

CITY           SKY/WX    TMP DP  RH WIND       PRES   REMARKS
W PALM BEACH   MOCLDY    77  71  82 S5        30.01S
FT LAUDER-EXEC MOCLDY    77  74  90 CALM      30.01S
FT LAUDERDALE  MOCLDY    80  72  76 S5        30.00S
POMPANO BEACH  MOCLDY    79  72  79 W3        30.01R
PEMBROKE PINES MOCLDY    78  72  81 CALM      30.01F
OPA LOCKA      PTCLDY    77  71  82 S6        30.01S
MIAMI          MOCLDY    79  69  71 SW5       30.02R
WEST KENDALL   PTCLDY    75  71  87 S3        30.02S
HOMESTEAD      PTCLDY    73  70  89 CALM      30.02R

STATION/POSITION SKY/WX   TEMP    WIND        PRES    WAVE   SWELL
                          AIR SEA DIR/SP/G            HT/PER HT/PER
                          (F)     (DEG/KT/KT) (MB)    (FT/S) (FT/S)
PORT EVERGLADES            79     190/  3/  5 1016.0R
VIRGINIA KEY               79 83  160/  5/  6 1015.9F
LAKE WORTH                 79 80  180/  9/ 10 1015.9F
SETTLEMENT POINT           78     180/  7/  8 1016.9F

$$



USA.gov is the U.S. government's official web portal to all federal, state and local government web resources and services.